Regional Weather Roundup
Issued by NWS Portland, ME

Current Version | Previous Version | Text Only | Print | Product List | Glossary Off
Versions: 1 2 3 4 5 6 7 8 9 10 11 12 13 14 15 16 17 18 19 20 21 22 23 24 25 26 27 28 29 30 31 32 33 34 35 36 37 38 39 40 41 42 43 44 45 46 47 48 49 50
000 ASUS41 KGYX 182206 RWRGYX WEATHER ROUNDUP FOR MAINE AND NEW HAMPSHIRE NATIONAL WEATHER SERVICE GRAY ME 600 PM EDT FRI AUG 18 2017 MEZ002-005-006-010-012-015-018-020-021-024-026-027-029-182300- MAINE CITY SKY/WX TMP DP RH WIND PRES REMARKS PORTLAND LGT RAIN 63 61 93 NE9 29.87F FOG SANFORD CLOUDY 65 65 100 NE5 29.85S FOG BAR HARBOR CLOUDY 61 59 93 SE5 29.97S WISCASSET HVY RAIN 61 59 93 E5 29.92S FOG ROCKLAND LGT RAIN 58 58 100 E8 29.93S FRYEBURG LGT RAIN 60 60 100 N5 29.90S FOG LEWISTONAUBURN LGT RAIN 60 59 96 NE5 29.90S AUGUSTA CLOUDY 60 58 92 SE8 29.92S WATERVILLE RAIN 60 59 96 CALM 29.91S FOG BANGOR CLOUDY 63 60 90 SE8 29.95F GREENVILLE N/A 57 57 100 SE12G20 29.92F MILLINOCKET CLOUDY 61 59 93 SE3 29.97F HOULTON CLOUDY 66 58 75 S6 29.96S PRESQUE ISLE CLOUDY 65 56 72 S9 29.97R FRENCHVILLE CLOUDY 66 50 56 S12 29.94S CARIBOU CLOUDY 67 54 63 S10 29.95R $$ NHZ002-005-008-009-011-012-014-182300- NEW HAMPSHIRE CITY SKY/WX TMP DP RH WIND PRES REMARKS PORTSMOUTH LGT RAIN 70 69 96 CALM 29.82R FOG ROCHESTER LGT RAIN 66 64 93 N3 29.84S NASHUA LGT RAIN 73 73 100 SE3 29.81F FOG MANCHESTER LGT RAIN 71 68 90 CALM 29.80F VSB 1 CONCORD LGT RAIN 65 64 97 N5 29.83S LACONIA LGT RAIN 61 60 97 NE12 29.86S PLYMOUTH CLOUDY 62 60 94 CALM 29.86F BERLIN CLOUDY 65 58 78 SE3 29.88S WHITEFIELD CLOUDY 68 60 75 CALM 29.84R JAFFREY LGT RAIN 73 73 100 SE8 29.83S FOG KEENE N/A N/A N/A N/A MISG N/A LEBANON CLOUDY 67 64 90 N5 29.79F MT WASHINGTON LGT RAIN 54 54 100 SW22 N/A VSB 0 $$ VTZ005-007-008-182300- VERMONT CITY SKY/WX TMP DP RH WIND PRES REMARKS ST JOHNSBURY N/A 66 65 96 MISG 29.79F MONTPELIER CLOUDY 67 65 93 VRB5 29.83F BURLINGTON MOSUNNY 81 71 71 S9 29.71S $$ MAZ007-012-024-CTZ003-RIZ002-NYZ038-NYZ072-182300- SOUTHERN NEW ENGLAND AND NY CITY SKY/WX TMP DP RH WIND PRES REMARKS BOSTON CLOUDY 76 71 85 S14 29.82S WORCESTER CLOUDY 72 71 97 S9 29.84S FOG NANTUCKET CLOUDY 70 69 97 S13 29.90S PROVIDENCE FOG 73 73 100 S9 29.84F VSB 1 HARTFORD CLOUDY 80 75 84 S7 29.79S ALBANY CLOUDY 76 73 91 S8 29.76F NEW YORK CITY CLOUDY 80 77 90 S10 29.78R $$ ANZ081-ANZ082-ANZ150-NHZ014-MEZ023>029-182300- COASTAL MARINE OBSERVATIONS STATION/POSITION TIME TEMP WIND PRES WAVE AIR SEA DIR/SP/G HT/PER (UTC) (F) (DEG/KT/KT) (MB) (FT/S) MOUNT DESERT ROC 2200 59 1014.6F MATINICUS ROCK 2100 58 120/ 15/ 16 1013.4F ISLE OF SHOALS 2100 68 160/ 21/ 23 1009.6F JEFFREYS LEDGE 2106 64 N/A 4/ 4 CASHES LEDGE BUO 2150 62 68 1012.1F 3/ 3 GEORGES BANK BUO 2050 69 65 1015.5 2/ 7 $$ .............KEY.............. WCI - WIND CHILL TC - TEMPERATURE IN CELSIUS VSB - VISIBILITY IN MILES HX - HEAT INDEX FAIR- INDICATES FEW OR NO CLOUDS BELOW 12,000 FT, WITH NO SIGNIFICANT WEATHER AND/OR OBSTRUCTIONS TO VISIBILITY.

USA.gov is the U.S. government's official web portal to all federal, state and local government web resources and services.